Volver al catálogo

FENGYUN 1C DEB

ActivoPO
NORAD 37683·DEBRIS·🇨🇳 China

Lanzado May 10, 1999 desde Taiyuan Satellite Launch Center

Loading…

Próximos Pases (próximas 24 horas)

TLE

ActualizadoSource: Space-Track

Época: Sep 14, 2026, 11:05 UTC

1 37683U 99025EKY 26257.46235017  .00001108  00000-0  89397-3 0  9991
2 37683  97.9836 122.9736 0580267 141.7451 346.7105 13.32949642329128

Sigue FENGYUN 1C DEB en tiempo real con AllMySat

Download on the App Store